Year,Month,Day,Hour,Minute,Value (Times are PST for temperature in C)
2014,08,10,00,00,15.60
2014,08,10,00,01,15.50
2014,08,10,00,02,15.50
2014,08,10,00,03,15.50
2014,08,10,00,04,15.40
2014,08,10,00,05,15.40
2014,08,10,00,06,15.40
2014,08,10,00,07,15.30
2014,08,10,00,08,15.30
2014,08,10,00,09,15.30
2014,08,10,00,10,15.30
2014,08,10,00,11,15.30
2014,08,10,00,12,15.30
2014,08,10,00,13,15.40
2014,08,10,00,14,15.40
2014,08,10,00,15,15.30
2014,08,10,00,16,15.30
2014,08,10,00,17,15.30
2014,08,10,00,18,15.30
2014,08,10,00,19,15.30
2014,08,10,00,20,15.30
2014,08,10,00,21,15.30
2014,08,10,00,22,15.30
2014,08,10,00,23,15.30
2014,08,10,00,24,15.30
2014,08,10,00,25,15.20
2014,08,10,00,26,15.20
2014,08,10,00,27,15.20
2014,08,10,00,28,15.20
2014,08,10,00,29,15.20
2014,08,10,00,30,15.20
2014,08,10,00,31,15.20
2014,08,10,00,32,15.10
2014,08,10,00,33,15.10
2014,08,10,00,34,15.10
2014,08,10,00,35,15.10
2014,08,10,00,36,15.10
2014,08,10,00,37,15.10
2014,08,10,00,38,15.10
2014,08,10,00,39,15.00
2014,08,10,00,40,15.00
2014,08,10,00,41,15.00
2014,08,10,00,42,15.00
2014,08,10,00,43,15.00
2014,08,10,00,44,15.00
2014,08,10,00,45,15.00
2014,08,10,00,46,14.90
2014,08,10,00,47,14.90
2014,08,10,00,48,14.90
2014,08,10,00,49,14.90
2014,08,10,00,50,15.00
2014,08,10,00,51,15.00
2014,08,10,00,52,15.00
2014,08,10,00,53,15.00
2014,08,10,00,54,15.00
2014,08,10,00,55,15.00
2014,08,10,00,56,15.00
2014,08,10,00,57,15.00
2014,08,10,00,58,15.00
2014,08,10,00,59,15.00
2014,08,10,01,00,15.00
2014,08,10,01,01,15.00
2014,08,10,01,02,15.00
2014,08,10,01,03,15.00
2014,08,10,01,04,14.90
2014,08,10,01,05,14.90
2014,08,10,01,06,14.90
2014,08,10,01,07,14.90
2014,08,10,01,08,14.90
2014,08,10,01,09,14.90
2014,08,10,01,10,14.80
2014,08,10,01,11,14.80
2014,08,10,01,12,14.80
2014,08,10,01,13,14.80
2014,08,10,01,14,14.80
2014,08,10,01,15,14.80
2014,08,10,01,16,14.70
2014,08,10,01,17,14.70
2014,08,10,01,18,14.70
2014,08,10,01,19,14.70
2014,08,10,01,20,14.60
2014,08,10,01,21,14.60
2014,08,10,01,22,14.60
2014,08,10,01,23,14.60
2014,08,10,01,24,14.60
2014,08,10,01,25,14.50
2014,08,10,01,26,14.50
2014,08,10,01,27,14.50
2014,08,10,01,28,14.50
2014,08,10,01,29,14.40
2014,08,10,01,30,14.40
2014,08,10,01,31,14.40
2014,08,10,01,32,14.40
2014,08,10,01,33,14.40
2014,08,10,01,34,14.40
2014,08,10,01,35,14.40
2014,08,10,01,36,14.40
2014,08,10,01,37,14.40
2014,08,10,01,38,14.30
2014,08,10,01,39,14.30
2014,08,10,01,40,14.30
2014,08,10,01,41,14.30
2014,08,10,01,42,14.30
2014,08,10,01,43,14.30
2014,08,10,01,44,14.20
2014,08,10,01,45,14.20
2014,08,10,01,46,14.20
2014,08,10,01,47,14.20
2014,08,10,01,48,14.20
2014,08,10,01,49,14.20
2014,08,10,01,50,14.20
2014,08,10,01,51,14.20
2014,08,10,01,52,14.20
2014,08,10,01,53,14.20
2014,08,10,01,54,14.10
2014,08,10,01,55,14.10
2014,08,10,01,56,14.10
2014,08,10,01,57,14.10
2014,08,10,01,58,14.10
2014,08,10,01,59,14.10
2014,08,10,02,00,14.10
2014,08,10,02,01,14.10
2014,08,10,02,02,14.10
2014,08,10,02,03,14.10
2014,08,10,02,04,14.10
2014,08,10,02,05,14.20
2014,08,10,02,06,14.10
2014,08,10,02,07,14.10
2014,08,10,02,08,14.10
2014,08,10,02,09,14.10
2014,08,10,02,10,14.10
2014,08,10,02,11,14.10
2014,08,10,02,12,14.20
2014,08,10,02,13,14.20
2014,08,10,02,14,14.20
2014,08,10,02,15,14.20
2014,08,10,02,16,14.20
2014,08,10,02,17,14.10
2014,08,10,02,18,14.10
2014,08,10,02,19,14.10
2014,08,10,02,20,14.10
2014,08,10,02,21,14.10
2014,08,10,02,22,14.00
2014,08,10,02,23,14.00
2014,08,10,02,24,14.00
2014,08,10,02,25,14.00
2014,08,10,02,26,14.00
2014,08,10,02,27,14.00
2014,08,10,02,28,14.00
2014,08,10,02,29,13.90
2014,08,10,02,30,13.90
2014,08,10,02,31,13.90
2014,08,10,02,32,13.90
2014,08,10,02,33,13.90
2014,08,10,02,34,14.00
2014,08,10,02,35,14.00
2014,08,10,02,36,14.00
2014,08,10,02,37,14.00
2014,08,10,02,38,14.00
2014,08,10,02,39,14.00
2014,08,10,02,40,14.00
2014,08,10,02,41,14.00
2014,08,10,02,42,13.90
2014,08,10,02,43,13.90
2014,08,10,02,44,13.80
2014,08,10,02,45,13.80
2014,08,10,02,46,13.80
2014,08,10,02,47,13.70
2014,08,10,02,48,13.70
2014,08,10,02,49,13.60
2014,08,10,02,50,13.50
2014,08,10,02,51,13.50
2014,08,10,02,52,13.50
2014,08,10,02,53,13.40
2014,08,10,02,54,13.40
2014,08,10,02,55,13.40
2014,08,10,02,56,13.40
2014,08,10,02,57,13.30
2014,08,10,02,58,13.40
2014,08,10,02,59,13.40
2014,08,10,03,00,13.40
2014,08,10,03,01,13.40
2014,08,10,03,02,13.50
2014,08,10,03,03,13.50
2014,08,10,03,04,13.50
2014,08,10,03,05,13.60
2014,08,10,03,06,13.60
2014,08,10,03,07,13.60
2014,08,10,03,08,13.60
2014,08,10,03,09,13.70
2014,08,10,03,10,13.70
2014,08,10,03,11,13.70
2014,08,10,03,12,13.70
2014,08,10,03,13,13.70
2014,08,10,03,14,13.70
2014,08,10,03,15,13.70
2014,08,10,03,16,13.70
2014,08,10,03,17,13.60
2014,08,10,03,18,13.60
2014,08,10,03,19,13.60
2014,08,10,03,20,13.60
2014,08,10,03,21,13.60
2014,08,10,03,22,13.60
2014,08,10,03,23,13.60
2014,08,10,03,24,13.60
2014,08,10,03,25,13.60
2014,08,10,03,26,13.60
2014,08,10,03,27,13.60
2014,08,10,03,28,13.70
2014,08,10,03,29,13.70
2014,08,10,03,30,13.70
2014,08,10,03,31,13.70
2014,08,10,03,32,13.70
2014,08,10,03,33,13.70
2014,08,10,03,34,13.70
2014,08,10,03,35,13.70
2014,08,10,03,36,13.70
2014,08,10,03,37,13.70
2014,08,10,03,38,13.80
2014,08,10,03,39,13.80
2014,08,10,03,40,13.90
2014,08,10,03,41,13.80
2014,08,10,03,42,13.80
2014,08,10,03,43,13.80
2014,08,10,03,44,13.70
2014,08,10,03,45,13.70
2014,08,10,03,46,13.70
2014,08,10,03,47,13.70
2014,08,10,03,48,13.70
2014,08,10,03,49,13.60
2014,08,10,03,50,13.60
2014,08,10,03,51,13.60
2014,08,10,03,52,13.60
2014,08,10,03,53,13.60
2014,08,10,03,54,13.60
2014,08,10,03,55,13.60
2014,08,10,03,56,13.60
2014,08,10,03,57,13.60
2014,08,10,03,58,13.60
2014,08,10,03,59,13.70
2014,08,10,04,00,13.70
2014,08,10,04,01,13.70
2014,08,10,04,02,13.70
2014,08,10,04,03,13.70
2014,08,10,04,04,13.70
2014,08,10,04,05,13.70
2014,08,10,04,06,13.70
2014,08,10,04,07,13.70
2014,08,10,04,08,13.70
2014,08,10,04,09,13.80
2014,08,10,04,10,13.80
2014,08,10,04,11,13.90
2014,08,10,04,12,13.90
2014,08,10,04,13,13.90
2014,08,10,04,14,13.90
2014,08,10,04,15,13.90
2014,08,10,04,16,14.00
2014,08,10,04,17,14.00
2014,08,10,04,18,14.00
2014,08,10,04,19,13.90
2014,08,10,04,20,13.90
2014,08,10,04,21,13.80
2014,08,10,04,22,13.80
2014,08,10,04,23,13.80
2014,08,10,04,24,13.70
2014,08,10,04,25,13.70
2014,08,10,04,26,13.70
2014,08,10,04,27,13.70
2014,08,10,04,28,13.70
2014,08,10,04,29,13.60
2014,08,10,04,30,13.60
2014,08,10,04,31,13.60
2014,08,10,04,32,13.70
2014,08,10,04,33,13.70
2014,08,10,04,34,13.60
2014,08,10,04,35,13.60
2014,08,10,04,36,13.60
2014,08,10,04,37,13.50
2014,08,10,04,38,13.50
2014,08,10,04,39,13.50
2014,08,10,04,40,13.50
2014,08,10,04,41,13.40
2014,08,10,04,42,13.40
2014,08,10,04,43,13.40
2014,08,10,04,44,13.40
2014,08,10,04,45,13.40
2014,08,10,04,46,13.40
2014,08,10,04,47,13.40
2014,08,10,04,48,13.40
2014,08,10,04,49,13.40
2014,08,10,04,50,13.40
2014,08,10,04,51,13.40
2014,08,10,04,52,13.40
2014,08,10,04,53,13.40
2014,08,10,04,54,13.40
2014,08,10,04,55,13.50
2014,08,10,04,56,13.50
2014,08,10,04,57,13.50
2014,08,10,04,58,13.60
2014,08,10,04,59,13.60
2014,08,10,05,00,13.60
2014,08,10,05,01,13.70
2014,08,10,05,02,13.70
2014,08,10,05,03,13.70
2014,08,10,05,04,13.70
2014,08,10,05,05,13.70
2014,08,10,05,06,13.70
2014,08,10,05,07,13.70
2014,08,10,05,08,13.70
2014,08,10,05,09,13.70
2014,08,10,05,10,13.70
2014,08,10,05,11,13.70
2014,08,10,05,12,13.70
2014,08,10,05,13,13.70
2014,08,10,05,14,13.70
2014,08,10,05,15,13.60
2014,08,10,05,16,13.60
2014,08,10,05,17,13.60
2014,08,10,05,18,13.60
2014,08,10,05,19,13.60
2014,08,10,05,20,13.50
2014,08,10,05,21,13.50
2014,08,10,05,22,13.50
2014,08,10,05,23,13.50
2014,08,10,05,24,13.50
2014,08,10,05,25,13.50
2014,08,10,05,26,13.60
2014,08,10,05,27,13.60
2014,08,10,05,28,13.60
2014,08,10,05,29,13.70
2014,08,10,05,30,13.70
2014,08,10,05,31,13.70
2014,08,10,05,32,13.70
2014,08,10,05,33,13.70
2014,08,10,05,34,13.70
2014,08,10,05,35,13.80
2014,08,10,05,36,13.80
2014,08,10,05,37,13.80
2014,08,10,05,38,13.90
2014,08,10,05,39,13.90
2014,08,10,05,40,13.90
2014,08,10,05,41,13.80
2014,08,10,05,42,13.80
2014,08,10,05,43,13.80
2014,08,10,05,44,13.90
2014,08,10,05,45,13.90
2014,08,10,05,46,13.90
2014,08,10,05,47,14.00
2014,08,10,05,48,14.00
2014,08,10,05,49,14.00
2014,08,10,05,50,14.10
2014,08,10,05,51,14.10
2014,08,10,05,52,14.10
2014,08,10,05,53,14.10
2014,08,10,05,54,14.10
2014,08,10,05,55,14.20
2014,08,10,05,56,14.20
2014,08,10,05,57,14.20
2014,08,10,05,58,14.30
2014,08,10,05,59,14.30
2014,08,10,06,00,14.40
2014,08,10,06,01,14.50
2014,08,10,06,02,14.50
2014,08,10,06,03,14.60
2014,08,10,06,04,14.60
2014,08,10,06,05,14.60
2014,08,10,06,06,14.60
2014,08,10,06,07,14.60
2014,08,10,06,08,14.50
2014,08,10,06,09,14.50
2014,08,10,06,10,14.50
2014,08,10,06,11,14.40
2014,08,10,06,12,14.30
2014,08,10,06,13,14.20
2014,08,10,06,14,14.20
2014,08,10,06,15,14.20
2014,08,10,06,16,14.10
2014,08,10,06,17,14.10
2014,08,10,06,18,14.00
2014,08,10,06,19,14.00
2014,08,10,06,20,14.00
2014,08,10,06,21,13.90
2014,08,10,06,22,13.90
2014,08,10,06,23,13.80
2014,08,10,06,24,13.80
2014,08,10,06,25,13.80
2014,08,10,06,26,13.70
2014,08,10,06,27,13.70
2014,08,10,06,28,13.70
2014,08,10,06,29,13.70
2014,08,10,06,30,13.70
2014,08,10,06,31,13.70
2014,08,10,06,32,13.70
2014,08,10,06,33,13.60
2014,08,10,06,34,13.60
2014,08,10,06,35,13.60
2014,08,10,06,36,13.60
2014,08,10,06,37,13.60
2014,08,10,06,38,13.60
2014,08,10,06,39,13.60
2014,08,10,06,40,13.70
2014,08,10,06,41,13.70
2014,08,10,06,42,13.70
2014,08,10,06,43,13.70
2014,08,10,06,44,13.80
2014,08,10,06,45,13.80
2014,08,10,06,46,13.80
2014,08,10,06,47,13.80
2014,08,10,06,48,13.90
2014,08,10,06,49,13.90
2014,08,10,06,50,13.90
2014,08,10,06,51,13.90
2014,08,10,06,52,13.90
2014,08,10,06,53,13.90
2014,08,10,06,54,14.00
2014,08,10,06,55,14.00
2014,08,10,06,56,14.00
2014,08,10,06,57,14.00
2014,08,10,06,58,14.10
2014,08,10,06,59,14.10
2014,08,10,07,00,14.10
2014,08,10,07,01,14.20
2014,08,10,07,02,14.20
2014,08,10,07,03,14.20
2014,08,10,07,04,14.30
2014,08,10,07,05,14.40
2014,08,10,07,06,14.40
2014,08,10,07,07,14.50
2014,08,10,07,08,14.50
2014,08,10,07,09,14.60
2014,08,10,07,10,14.60
2014,08,10,07,11,14.70
2014,08,10,07,12,14.70
2014,08,10,07,13,14.80
2014,08,10,07,14,14.80
2014,08,10,07,15,14.90
2014,08,10,07,16,15.00
2014,08,10,07,17,15.00
2014,08,10,07,18,15.10
2014,08,10,07,19,15.20
2014,08,10,07,20,15.20
2014,08,10,07,21,15.30
2014,08,10,07,22,15.40
2014,08,10,07,23,15.50
2014,08,10,07,24,15.60
2014,08,10,07,25,15.70
2014,08,10,07,26,15.80
2014,08,10,07,27,15.80
2014,08,10,07,28,15.90
2014,08,10,07,29,16.10
2014,08,10,07,30,16.10
2014,08,10,07,31,16.20
2014,08,10,07,32,16.30
2014,08,10,07,33,16.30
2014,08,10,07,34,16.40
2014,08,10,07,35,16.50
2014,08,10,07,36,16.60
2014,08,10,07,37,16.70
2014,08,10,07,38,16.70
2014,08,10,07,39,16.80
2014,08,10,07,40,16.90
2014,08,10,07,41,17.00
2014,08,10,07,42,17.10
2014,08,10,07,43,17.10
2014,08,10,07,44,17.20
2014,08,10,07,45,17.20
2014,08,10,07,46,17.20
2014,08,10,07,47,17.30
2014,08,10,07,48,17.30
2014,08,10,07,49,17.30
2014,08,10,07,50,17.30
2014,08,10,07,51,17.40
2014,08,10,07,52,17.50
2014,08,10,07,53,17.50
2014,08,10,07,54,17.50
2014,08,10,07,55,17.60
2014,08,10,07,56,17.60
2014,08,10,07,57,17.70
2014,08,10,07,58,17.70
2014,08,10,07,59,17.70
2014,08,10,08,00,17.80
2014,08,10,08,01,17.80
2014,08,10,08,02,17.90
2014,08,10,08,03,17.90
2014,08,10,08,04,17.90
2014,08,10,08,05,18.00
2014,08,10,08,06,18.10
2014,08,10,08,07,18.20
2014,08,10,08,08,18.20
2014,08,10,08,09,18.30
2014,08,10,08,10,18.40
2014,08,10,08,11,18.50
2014,08,10,08,12,18.60
2014,08,10,08,13,18.70
2014,08,10,08,14,18.80
2014,08,10,08,15,18.90
2014,08,10,08,16,19.00
2014,08,10,08,17,19.10
2014,08,10,08,18,19.10
2014,08,10,08,19,19.10
2014,08,10,08,20,19.20
2014,08,10,08,21,19.20
2014,08,10,08,22,19.30
2014,08,10,08,23,19.30
2014,08,10,08,24,19.30
2014,08,10,08,25,19.40
2014,08,10,08,26,19.50
2014,08,10,08,27,19.60
2014,08,10,08,28,19.70
2014,08,10,08,29,19.90
2014,08,10,08,30,19.90
2014,08,10,08,31,20.10
2014,08,10,08,32,20.10
2014,08,10,08,33,20.20
2014,08,10,08,34,20.20
2014,08,10,08,35,20.30
2014,08,10,08,36,20.40
2014,08,10,08,37,20.50
2014,08,10,08,38,20.60
2014,08,10,08,39,20.70
2014,08,10,08,40,20.80
2014,08,10,08,41,20.90
2014,08,10,08,42,21.00
2014,08,10,08,43,21.10
2014,08,10,08,44,21.20
2014,08,10,08,45,21.30
2014,08,10,08,46,21.30
2014,08,10,08,47,21.50
2014,08,10,08,48,21.60
2014,08,10,08,49,21.60
2014,08,10,08,50,21.70
2014,08,10,08,51,21.80
2014,08,10,08,52,21.90
2014,08,10,08,53,22.00
2014,08,10,08,54,22.00
2014,08,10,08,55,22.10
2014,08,10,08,56,22.20
2014,08,10,08,57,22.20
2014,08,10,08,58,22.30
2014,08,10,08,59,22.30
2014,08,10,09,00,22.30
2014,08,10,09,01,22.30
2014,08,10,09,02,22.30
2014,08,10,09,03,22.30
2014,08,10,09,04,22.30
2014,08,10,09,05,22.40
2014,08,10,09,06,22.40
2014,08,10,09,07,22.40
2014,08,10,09,08,22.40
2014,08,10,09,09,22.50
2014,08,10,09,10,22.60
2014,08,10,09,11,22.60
2014,08,10,09,12,22.70
2014,08,10,09,13,22.70
2014,08,10,09,14,22.80
2014,08,10,09,15,22.90
2014,08,10,09,16,22.90
2014,08,10,09,17,22.90
2014,08,10,09,18,22.90
2014,08,10,09,19,22.90
2014,08,10,09,20,22.90
2014,08,10,09,21,23.00
2014,08,10,09,22,23.10
2014,08,10,09,23,23.10
2014,08,10,09,24,23.00
2014,08,10,09,25,22.90
2014,08,10,09,26,22.90
2014,08,10,09,27,22.90
2014,08,10,09,28,22.90
2014,08,10,09,29,22.90
2014,08,10,09,30,22.90
2014,08,10,09,31,22.90
2014,08,10,09,32,22.90
2014,08,10,09,33,23.00
2014,08,10,09,34,23.10
2014,08,10,09,35,23.20
2014,08,10,09,36,23.30
2014,08,10,09,37,23.40
2014,08,10,09,38,23.50
2014,08,10,09,39,23.60
2014,08,10,09,40,23.70
2014,08,10,09,41,23.70
2014,08,10,09,42,23.70
2014,08,10,09,43,23.60
2014,08,10,09,44,23.30
2014,08,10,09,45,23.30
2014,08,10,09,46,23.20
2014,08,10,09,47,23.20
2014,08,10,09,48,23.20
2014,08,10,09,49,23.30
2014,08,10,09,50,23.30
2014,08,10,09,51,23.30
2014,08,10,09,52,23.30
2014,08,10,09,53,23.30
2014,08,10,09,54,23.30
2014,08,10,09,55,23.20
2014,08,10,09,56,23.20
2014,08,10,09,57,23.20
2014,08,10,09,58,23.30
2014,08,10,09,59,23.30
2014,08,10,10,00,23.40
2014,08,10,10,01,23.40
2014,08,10,10,02,23.40
2014,08,10,10,03,23.30
2014,08,10,10,04,23.40
2014,08,10,10,05,23.40
2014,08,10,10,06,23.30
2014,08,10,10,07,23.30
2014,08,10,10,08,23.30
2014,08,10,10,09,23.30
2014,08,10,10,10,23.30
2014,08,10,10,11,23.40
2014,08,10,10,12,23.60
2014,08,10,10,13,23.70
2014,08,10,10,14,23.70
2014,08,10,10,15,23.70
2014,08,10,10,16,23.70
2014,08,10,10,17,23.80
2014,08,10,10,18,23.80
2014,08,10,10,19,23.90
2014,08,10,10,20,24.00
2014,08,10,10,21,24.10
2014,08,10,10,22,24.10
2014,08,10,10,23,24.10
2014,08,10,10,24,24.00
2014,08,10,10,25,23.90
2014,08,10,10,26,23.80
2014,08,10,10,27,23.70
2014,08,10,10,28,23.70
2014,08,10,10,29,23.80
2014,08,10,10,30,23.90
2014,08,10,10,31,24.00
2014,08,10,10,32,24.10
2014,08,10,10,33,24.00
2014,08,10,10,34,23.90
2014,08,10,10,35,23.80
2014,08,10,10,36,23.80
2014,08,10,10,37,23.80
2014,08,10,10,38,23.80
2014,08,10,10,39,23.70
2014,08,10,10,40,23.70
2014,08,10,10,41,23.80
2014,08,10,10,42,24.00
2014,08,10,10,43,24.10
2014,08,10,10,44,24.10
2014,08,10,10,45,24.10
2014,08,10,10,46,24.10
2014,08,10,10,47,24.10
2014,08,10,10,48,24.10
2014,08,10,10,49,24.30
2014,08,10,10,50,24.30
2014,08,10,10,51,24.40
2014,08,10,10,52,24.50
2014,08,10,10,53,24.50
2014,08,10,10,54,24.50
2014,08,10,10,55,24.60
2014,08,10,10,56,24.60
2014,08,10,10,57,24.70
2014,08,10,10,58,24.70
2014,08,10,10,59,24.60
2014,08,10,11,00,24.40
2014,08,10,11,01,24.40
2014,08,10,11,02,24.50
2014,08,10,11,03,24.60
2014,08,10,11,04,24.60
2014,08,10,11,05,24.70
2014,08,10,11,06,24.90
2014,08,10,11,07,24.90
2014,08,10,11,08,25.00
2014,08,10,11,09,25.10
2014,08,10,11,10,25.00
2014,08,10,11,11,25.10
2014,08,10,11,12,25.00
2014,08,10,11,13,25.00
2014,08,10,11,14,24.90
2014,08,10,11,15,24.90
2014,08,10,11,16,24.90
2014,08,10,11,17,25.00
2014,08,10,11,18,25.00
2014,08,10,11,19,25.10
2014,08,10,11,20,25.10
2014,08,10,11,21,25.10
2014,08,10,11,22,25.10
2014,08,10,11,23,25.10
2014,08,10,11,24,25.10
2014,08,10,11,25,25.10
2014,08,10,11,26,25.20
2014,08,10,11,27,25.30
2014,08,10,11,28,25.40
2014,08,10,11,29,25.50
2014,08,10,11,30,25.50
2014,08,10,11,31,25.60
2014,08,10,11,32,25.70
2014,08,10,11,33,25.80
2014,08,10,11,34,25.70
2014,08,10,11,35,25.70
2014,08,10,11,36,25.80
2014,08,10,11,37,26.10
2014,08,10,11,38,26.20
2014,08,10,11,39,26.20
2014,08,10,11,40,26.20
2014,08,10,11,41,26.10
2014,08,10,11,42,26.10
2014,08,10,11,43,26.00
2014,08,10,11,44,26.00
2014,08,10,11,45,26.00
2014,08,10,11,46,25.90
2014,08,10,11,47,25.90
2014,08,10,11,48,25.90
2014,08,10,11,49,25.70
2014,08,10,11,50,25.70
2014,08,10,11,51,25.80
2014,08,10,11,52,26.00
2014,08,10,11,53,26.10
2014,08,10,11,54,26.10
2014,08,10,11,55,26.10
2014,08,10,11,56,26.20
2014,08,10,11,57,26.20
2014,08,10,11,58,26.20
2014,08,10,11,59,26.20
2014,08,10,12,00,26.20
2014,08,10,12,01,26.30
2014,08,10,12,02,26.40
2014,08,10,12,03,26.50
2014,08,10,12,04,26.60
2014,08,10,12,05,26.40
2014,08,10,12,06,26.40
2014,08,10,12,07,26.40
2014,08,10,12,08,26.40
2014,08,10,12,09,26.50
2014,08,10,12,10,26.60
2014,08,10,12,11,26.60
2014,08,10,12,12,26.70
2014,08,10,12,13,26.70
2014,08,10,12,14,26.40
2014,08,10,12,15,26.30
2014,08,10,12,16,26.40
2014,08,10,12,17,26.50
2014,08,10,12,18,26.60
2014,08,10,12,19,26.60
2014,08,10,12,20,26.80
2014,08,10,12,21,26.80
2014,08,10,12,22,26.80
2014,08,10,12,23,26.80
2014,08,10,12,24,26.60
2014,08,10,12,25,26.60
2014,08,10,12,26,26.50
2014,08,10,12,27,26.40
2014,08,10,12,28,26.30
2014,08,10,12,29,26.30
2014,08,10,12,30,26.30
2014,08,10,12,31,26.40
2014,08,10,12,32,26.50
2014,08,10,12,33,26.60
2014,08,10,12,34,26.60
2014,08,10,12,35,26.60
2014,08,10,12,36,26.60
2014,08,10,12,37,26.60
2014,08,10,12,38,26.70
2014,08,10,12,39,26.90
2014,08,10,12,40,27.00
2014,08,10,12,41,27.10
2014,08,10,12,42,27.20
2014,08,10,12,43,27.30
2014,08,10,12,44,27.30
2014,08,10,12,45,27.30
2014,08,10,12,46,27.30
2014,08,10,12,47,27.40
2014,08,10,12,48,27.60
2014,08,10,12,49,27.70
2014,08,10,12,50,27.70
2014,08,10,12,51,27.70
2014,08,10,12,52,27.70
2014,08,10,12,53,27.70
2014,08,10,12,54,27.60
2014,08,10,12,55,27.50
2014,08,10,12,56,27.30
2014,08,10,12,57,27.30
2014,08,10,12,58,27.30
2014,08,10,12,59,27.30
2014,08,10,13,00,27.30
2014,08,10,13,01,27.30
2014,08,10,13,02,27.30
2014,08,10,13,03,27.30
2014,08,10,13,04,27.30
2014,08,10,13,05,27.40
2014,08,10,13,06,27.50
2014,08,10,13,07,27.50
2014,08,10,13,08,27.40
2014,08,10,13,09,27.40
2014,08,10,13,10,27.50
2014,08,10,13,11,27.70
2014,08,10,13,12,27.80
2014,08,10,13,13,27.80
2014,08,10,13,14,27.70
2014,08,10,13,15,27.60
2014,08,10,13,16,27.60
2014,08,10,13,17,27.60
2014,08,10,13,18,27.60
2014,08,10,13,19,27.50
2014,08,10,13,20,27.40
2014,08,10,13,21,27.30
2014,08,10,13,22,27.30
2014,08,10,13,23,27.30
2014,08,10,13,24,27.50
2014,08,10,13,25,27.70
2014,08,10,13,26,27.80
2014,08,10,13,27,28.00
2014,08,10,13,28,28.00
2014,08,10,13,29,28.00
2014,08,10,13,30,28.00
2014,08,10,13,31,28.10
2014,08,10,13,32,28.10
2014,08,10,13,33,28.30
2014,08,10,13,34,28.40
2014,08,10,13,35,28.60
2014,08,10,13,36,28.70
2014,08,10,13,37,28.80
2014,08,10,13,38,28.80
2014,08,10,13,39,28.80
2014,08,10,13,40,28.60
2014,08,10,13,41,28.60
2014,08,10,13,42,28.70
2014,08,10,13,43,28.60
2014,08,10,13,44,28.60
2014,08,10,13,45,28.60
2014,08,10,13,46,28.50
2014,08,10,13,47,28.40
2014,08,10,13,48,28.30
2014,08,10,13,49,28.00
2014,08,10,13,50,27.60
2014,08,10,13,51,27.00
2014,08,10,13,52,26.40
2014,08,10,13,53,26.00
2014,08,10,13,54,25.70
2014,08,10,13,55,25.50
2014,08,10,13,56,25.60
2014,08,10,13,57,25.70
2014,08,10,13,58,25.80
2014,08,10,13,59,25.80
2014,08,10,14,00,25.90
2014,08,10,14,01,26.20
2014,08,10,14,02,26.40
2014,08,10,14,03,26.60
2014,08,10,14,04,26.50
2014,08,10,14,05,26.40
2014,08,10,14,06,26.30
2014,08,10,14,07,26.20
2014,08,10,14,08,26.00
2014,08,10,14,09,26.00
2014,08,10,14,10,26.00
2014,08,10,14,11,26.00
2014,08,10,14,12,26.00
2014,08,10,14,13,25.90
2014,08,10,14,14,25.80
2014,08,10,14,15,25.80
2014,08,10,14,16,25.80
2014,08,10,14,17,25.80
2014,08,10,14,18,25.80
2014,08,10,14,19,25.90
2014,08,10,14,20,26.00
2014,08,10,14,21,26.00
2014,08,10,14,22,25.90
2014,08,10,14,23,25.80
2014,08,10,14,24,25.70
2014,08,10,14,25,25.70
2014,08,10,14,26,25.70
2014,08,10,14,27,25.60
2014,08,10,14,28,25.60
2014,08,10,14,29,25.60
2014,08,10,14,30,25.60
2014,08,10,14,31,25.70
2014,08,10,14,32,25.80
2014,08,10,14,33,25.90
2014,08,10,14,34,26.00
2014,08,10,14,35,26.00
2014,08,10,14,36,25.90
2014,08,10,14,37,25.90
2014,08,10,14,38,25.90
2014,08,10,14,39,25.80
2014,08,10,14,40,25.90
2014,08,10,14,41,26.00
2014,08,10,14,42,26.10
2014,08,10,14,43,26.30
2014,08,10,14,44,26.40
2014,08,10,14,45,26.50
2014,08,10,14,46,26.70
2014,08,10,14,47,27.00
2014,08,10,14,48,27.30
2014,08,10,14,49,27.60
2014,08,10,14,50,28.00
2014,08,10,14,51,28.20
2014,08,10,14,52,28.50
2014,08,10,14,53,28.70
2014,08,10,14,54,28.80
2014,08,10,14,55,28.90
2014,08,10,14,56,28.90
2014,08,10,14,57,28.90
2014,08,10,14,58,28.80
2014,08,10,14,59,28.70
2014,08,10,15,00,28.60
2014,08,10,15,01,28.60
2014,08,10,15,02,28.80
2014,08,10,15,03,29.00
2014,08,10,15,04,28.90
2014,08,10,15,05,28.90
2014,08,10,15,06,28.90
2014,08,10,15,07,28.90
2014,08,10,15,08,28.90
2014,08,10,15,09,28.90
2014,08,10,15,10,28.90
2014,08,10,15,11,28.90
2014,08,10,15,12,28.90
2014,08,10,15,13,28.90
2014,08,10,15,14,28.90
2014,08,10,15,15,28.90
2014,08,10,15,16,28.90
2014,08,10,15,17,28.80
2014,08,10,15,18,28.70
2014,08,10,15,19,28.70
2014,08,10,15,20,28.80
2014,08,10,15,21,28.90
2014,08,10,15,22,28.90
2014,08,10,15,23,28.90
2014,08,10,15,24,29.00
2014,08,10,15,25,29.10
2014,08,10,15,26,29.10
2014,08,10,15,27,29.10
2014,08,10,15,28,29.00
2014,08,10,15,29,28.90
2014,08,10,15,30,28.80
2014,08,10,15,31,28.60
2014,08,10,15,32,28.60
2014,08,10,15,33,28.70
2014,08,10,15,34,28.70
2014,08,10,15,35,28.70
2014,08,10,15,36,28.80
2014,08,10,15,37,28.80
2014,08,10,15,38,28.80
2014,08,10,15,39,28.80
2014,08,10,15,40,28.80
2014,08,10,15,41,28.70
2014,08,10,15,42,28.70
2014,08,10,15,43,28.70
2014,08,10,15,44,28.70
2014,08,10,15,45,28.80
2014,08,10,15,46,28.80
2014,08,10,15,47,28.90
2014,08,10,15,48,28.90
2014,08,10,15,49,28.80
2014,08,10,15,50,28.70
2014,08,10,15,51,28.80
2014,08,10,15,52,28.90
2014,08,10,15,53,29.00
2014,08,10,15,54,29.10
2014,08,10,15,55,29.20
2014,08,10,15,56,29.10
2014,08,10,15,57,29.10
2014,08,10,15,58,28.90
2014,08,10,15,59,28.90
2014,08,10,16,00,28.80
2014,08,10,16,01,28.80
2014,08,10,16,02,28.80
2014,08,10,16,03,28.90
2014,08,10,16,04,29.00
2014,08,10,16,05,29.10
2014,08,10,16,06,29.30
2014,08,10,16,07,29.40
2014,08,10,16,08,29.30
2014,08,10,16,09,29.30
2014,08,10,16,10,29.20
2014,08,10,16,11,29.10
2014,08,10,16,12,29.10
2014,08,10,16,13,29.10
2014,08,10,16,14,29.10
2014,08,10,16,15,29.10
2014,08,10,16,16,29.10
2014,08,10,16,17,29.00
2014,08,10,16,18,28.90
2014,08,10,16,19,28.90
2014,08,10,16,20,28.70
2014,08,10,16,21,28.60
2014,08,10,16,22,28.60
2014,08,10,16,23,28.50
2014,08,10,16,24,28.40
2014,08,10,16,25,28.30
2014,08,10,16,26,28.50
2014,08,10,16,27,28.60
2014,08,10,16,28,28.60
2014,08,10,16,29,28.60
2014,08,10,16,30,28.60
2014,08,10,16,31,28.60
2014,08,10,16,32,28.70
2014,08,10,16,33,28.70
2014,08,10,16,34,28.70
2014,08,10,16,35,28.80
2014,08,10,16,36,28.90
2014,08,10,16,37,28.90
2014,08,10,16,38,28.80
2014,08,10,16,39,28.90
2014,08,10,16,40,28.90
2014,08,10,16,41,28.90
2014,08,10,16,42,28.90
2014,08,10,16,43,28.90
2014,08,10,16,44,28.90
2014,08,10,16,45,28.90
2014,08,10,16,46,28.90
2014,08,10,16,47,28.80
2014,08,10,16,48,28.70
2014,08,10,16,49,28.60
2014,08,10,16,50,28.40
2014,08,10,16,51,28.30
2014,08,10,16,52,28.20
2014,08,10,16,53,28.20
2014,08,10,16,54,28.30
2014,08,10,16,55,28.40
2014,08,10,16,56,28.40
2014,08,10,16,57,28.60
2014,08,10,16,58,28.60
2014,08,10,16,59,28.70
2014,08,10,17,00,28.80
2014,08,10,17,01,28.90
2014,08,10,17,02,28.90
2014,08,10,17,03,28.90
2014,08,10,17,04,28.90
2014,08,10,17,05,29.00
2014,08,10,17,06,29.10
2014,08,10,17,07,29.10
2014,08,10,17,08,29.10
2014,08,10,17,09,29.10
2014,08,10,17,10,29.10
2014,08,10,17,11,29.10
2014,08,10,17,12,29.10
2014,08,10,17,13,29.10
2014,08,10,17,14,29.10
2014,08,10,17,15,29.10
2014,08,10,17,16,28.90
2014,08,10,17,17,29.00
2014,08,10,17,18,29.10
2014,08,10,17,19,29.20